Location: Driftpile
(55.3500°N, 115.7667°W)
Time: 10:15:53
(UTC+00:00)

N. Korean satellite - Pass Details

Date: 06 December 2021
Orbit: 447 x 491 km, 97.3° (Epoch: 23 January)

Event Time Altitude Azimuth Distance (km) Brightness Sun altitude
Rises 13:14:34 0° 14° (NNE) 2,475 10.2 -21.1°
Reaches altitude 10° 13:16:37 10° 14° (NNE) 1,593 9.2 -20.8°
Maximum altitude 13:20:01 88° 96° (E) 457 6.3 -20.4°
Drops below altitude 10° 13:23:24 10° 195° (SSW) 1,575 9.1 -19.9°
Sets 13:25:25 0° 195° (SSW) 2,443 10.1 -19.6°
